Weather History for KLGD - March, 2013

Change the Weather History Date:

Tuesday, March 5, 2013

  Actual Average Record
Temperature  
Mean Temperature 40 °F -  
Max Temperature 46 °F 44 °F 67 °F (1986)
Min Temperature 35 °F 28 °F 9 °F (1976)
Degree Days  
Heating Degree Days 24    
Moisture  
Dew Point 16 °F    
Average Humidity 36    
Maximum Humidity 52    
Minimum Humidity 31    
Precipitation  
Precipitation 0.00 in - - ()
Sea Level Pressure  
Sea Level Pressure 29.88 in    
Wind  
Wind Speed 19 mph (SE)    
Max Wind Speed 31 mph    
Max Gust Speed 44 mph    
Visibility 10 miles    
Events      
Averages and records for this station are not official NWS values.
T = Trace of Precipitation, MM = Missing Value Source: NWS Daily Summary

Daily Weather History Graph

Daily Weather History Graph

Search for Another Location

Airport or City:

Trip Planner

Search our weather history database for the weather conditions in past years. The results will help you decide how hot, cold, wet, or windy it might be!

Date:

Astronomy

Mar. 05, 2013 Rise Set
Actual Time 6:22 AM PST 5:45 PM PST
Civil Twilight 5:52 AM PST 6:14 PM PST
Nautical Twilight 5:18 AM PST 6:48 PM PST
Astronomical Twilight 4:44 AM PST 7:23 PM PST
Moon 1:51 AM PST (3/5) 11:16 AM PST (3/5)
Length of Visible Light 12h 21m
Length of Day
11h 22m
Last Quarter, 39% of the Moon is Illuminated
Mar 5
Last Quarter
Mar 11
New
Mar 19
First Quarter
Mar 27
Full
Apr 2
Last Quarter

Hourly Weather History & Observations

Time (PST) Temp. Windchill Dew Point Humidity Pressure Visibility Wind Dir Wind Speed Gust Speed Precip Events Conditions
12:15 AM 37.4 °F 27.5 °F 12.2 °F 36% 30.05 in 10.0 mi South 18.4 mph - N/A   Clear
12:35 AM 37.4 °F 25.9 °F 10.4 °F 33% 30.03 in 10.0 mi SSE 25.3 mph 32.2 mph N/A   Clear
12:55 AM 37.4 °F 25.9 °F 10.4 °F 33% 30.03 in 10.0 mi SSE 25.3 mph 32.2 mph N/A   Clear
1:15 AM 37.4 °F 26.4 °F 10.4 °F 33% 30.03 in 10.0 mi SSE 23.0 mph 31.1 mph N/A   Clear
1:35 AM 37.4 °F 26.1 °F 10.4 °F 33% 30.02 in 10.0 mi SSE 24.2 mph 29.9 mph N/A   Clear
1:55 AM 37.4 °F 26.1 °F 10.4 °F 33% 30.02 in 10.0 mi SSE 24.2 mph 34.5 mph N/A   Clear
2:15 AM 39.2 °F 29.3 °F 10.4 °F 31% 30.02 in 10.0 mi South 20.7 mph 28.8 mph N/A   Clear
2:35 AM 37.4 °F 26.6 °F 10.4 °F 33% 30.00 in 10.0 mi SE 21.9 mph 28.8 mph N/A   Clear
2:55 AM 39.2 °F 28.7 °F 10.4 °F 31% 30.00 in 10.0 mi SE 23.0 mph 26.5 mph N/A   Clear
3:15 AM 39.2 °F 28.7 °F 10.4 °F 31% 29.99 in 10.0 mi SSE 23.0 mph 34.5 mph N/A   Clear
3:35 AM 39.2 °F 30.5 °F 10.4 °F 31% 29.98 in 10.0 mi SSE 16.1 mph 43.7 mph N/A   Clear
3:55 AM 37.4 °F 27.2 °F 10.4 °F 33% 29.98 in 10.0 mi SE 19.6 mph 31.1 mph N/A   Clear
4:15 AM 37.4 °F 26.1 °F 12.2 °F 36% 29.97 in 10.0 mi ESE 24.2 mph 34.5 mph N/A   Partly Cloudy
4:35 AM 37.4 °F 26.1 °F 12.2 °F 36% 29.97 in 10.0 mi SE 24.2 mph 32.2 mph N/A   Scattered Clouds
5:15 AM 37.4 °F 25.6 °F 12.2 °F 36% 29.96 in 10.0 mi SE 26.5 mph 33.4 mph N/A   Partly Cloudy
5:35 AM 37.4 °F 28.5 °F 12.2 °F 36% 29.97 in 10.0 mi SE 15.0 mph 39.1 mph N/A   Clear
5:55 AM 35.6 °F 24.2 °F 12.2 °F 38% 29.97 in 10.0 mi SE 21.9 mph 26.5 mph N/A   Clear
6:15 AM 37.4 °F 27.2 °F 12.2 °F 36% 29.96 in 10.0 mi ESE 19.6 mph 29.9 mph N/A   Clear
6:35 AM 37.4 °F 27.5 °F 12.2 °F 36% 29.97 in 10.0 mi SSE 18.4 mph 25.3 mph N/A   Clear
6:55 AM 37.4 °F 26.6 °F 12.2 °F 36% 29.96 in 10.0 mi ESE 21.9 mph 33.4 mph N/A   Clear
7:15 AM 37.4 °F 27.2 °F 12.2 °F 36% 29.96 in 10.0 mi ESE 19.6 mph 27.6 mph N/A   Clear
7:35 AM 37.4 °F 27.5 °F 14.0 °F 38% 29.96 in 10.0 mi SE 18.4 mph - N/A   Mostly Cloudy
7:55 AM 39.2 °F 28.5 °F 14.0 °F 36% 29.95 in 10.0 mi ESE 24.2 mph 35.7 mph N/A   Overcast
8:15 AM 41.0 °F 31.4 °F 14.0 °F 33% 29.95 in 10.0 mi ESE 21.9 mph 29.9 mph N/A   Scattered Clouds
8:35 AM 41.0 °F 31.1 °F 14.0 °F 33% 29.94 in 10.0 mi ESE 23.0 mph 29.9 mph N/A   Mostly Cloudy
8:55 AM 41.0 °F 32.8 °F 14.0 °F 33% 29.94 in 10.0 mi SSE 16.1 mph 27.6 mph N/A   Overcast
9:15 AM 41.0 °F 32.8 °F 15.8 °F 36% 29.94 in 10.0 mi SSE 16.1 mph 27.6 mph N/A   Overcast
9:35 AM 42.8 °F 36.2 °F 15.8 °F 34% 29.92 in 10.0 mi SE 12.7 mph 29.9 mph N/A   Overcast
9:55 AM 41.0 °F 30.9 °F 15.8 °F 36% 29.90 in 10.0 mi South 24.2 mph 39.1 mph N/A   Overcast
10:15 AM 42.8 °F 33.3 °F 15.8 °F 34% 29.90 in 10.0 mi South 24.2 mph 32.2 mph N/A   Overcast
10:35 AM 42.8 °F 32.7 °F 15.8 °F 34% 29.91 in 10.0 mi South 27.6 mph 34.5 mph N/A   Overcast
10:55 AM 42.8 °F 32.1 °F 15.8 °F 34% 29.89 in 10.0 mi SSE 31.1 mph 36.8 mph N/A   Overcast
11:15 AM 42.8 °F 33.1 °F 15.8 °F 34% 29.91 in 10.0 mi SSE 25.3 mph 41.4 mph N/A   Overcast
11:35 AM 44.6 °F 35.7 °F 15.8 °F 31% 29.91 in 10.0 mi SSE 24.2 mph 34.5 mph N/A   Overcast
11:55 AM 44.6 °F 36.1 °F 15.8 °F 31% 29.91 in 10.0 mi SSE 21.9 mph 27.6 mph N/A   Overcast
12:15 PM 44.6 °F 36.1 °F 15.8 °F 31% 29.90 in 10.0 mi SSE 21.9 mph 32.2 mph N/A   Overcast
12:35 PM 46.4 °F 39.8 °F 17.6 °F 32% 29.90 in 10.0 mi South 16.1 mph 27.6 mph N/A   Mostly Cloudy
12:55 PM 46.4 °F 38.3 °F 17.6 °F 32% 29.89 in 10.0 mi SSE 23.0 mph 28.8 mph N/A   Mostly Cloudy
1:15 PM 46.4 °F 39.2 °F 17.6 °F 32% 29.88 in 10.0 mi SE 18.4 mph 26.5 mph N/A   Scattered Clouds
1:35 PM 46.4 °F 39.2 °F 17.6 °F 32% 29.86 in 10.0 mi SSE 18.4 mph - N/A   Partly Cloudy
1:55 PM 44.6 °F 36.4 °F 17.6 °F 34% 29.86 in 10.0 mi SSE 20.7 mph 27.6 mph N/A   Clear
2:15 PM 44.6 °F 36.6 °F 17.6 °F 34% 29.85 in 10.0 mi SSE 19.6 mph 25.3 mph N/A   Clear
2:35 PM 44.6 °F 36.6 °F 17.6 °F 34% 29.84 in 10.0 mi SSE 19.6 mph - N/A   Clear
2:55 PM 46.4 °F 38.7 °F 19.4 °F 34% 29.84 in 10.0 mi SSE 20.7 mph 25.3 mph N/A   Partly Cloudy
3:15 PM 46.4 °F 39.5 °F 19.4 °F 34% 29.84 in 10.0 mi SE 17.3 mph 21.9 mph N/A   Mostly Cloudy
3:35 PM 46.4 °F 39.8 °F 19.4 °F 34% 29.83 in 10.0 mi SSE 16.1 mph 23.0 mph N/A   Overcast
3:55 PM 46.4 °F 39.2 °F 19.4 °F 34% 29.82 in 10.0 mi SE 18.4 mph 25.3 mph N/A   Overcast
4:15 PM 46.4 °F 39.8 °F 19.4 °F 34% 29.81 in 10.0 mi SE 16.1 mph 20.7 mph N/A   Overcast
4:35 PM 46.4 °F 39.8 °F 19.4 °F 34% 29.81 in 10.0 mi SE 16.1 mph 19.6 mph N/A   Overcast
4:55 PM 46.4 °F 39.5 °F 19.4 °F 34% 29.81 in 10.0 mi ESE 17.3 mph - N/A   Overcast
5:15 PM 44.6 °F 37.2 °F 19.4 °F 37% 29.80 in 10.0 mi SE 17.3 mph 20.7 mph N/A   Overcast
5:35 PM 44.6 °F 38.8 °F 19.4 °F 37% 29.81 in 10.0 mi South 11.5 mph - N/A   Overcast
5:55 PM 44.6 °F 38.4 °F 19.4 °F 37% 29.81 in 10.0 mi South 12.7 mph 19.6 mph N/A   Overcast
6:15 PM 44.6 °F 40.2 °F 19.4 °F 37% 29.81 in 10.0 mi SSE 8.1 mph - N/A   Overcast
6:35 PM 44.6 °F 38.1 °F 19.4 °F 37% 29.80 in 10.0 mi South 13.8 mph - N/A   Overcast
6:55 PM 44.6 °F 40.2 °F 19.4 °F 37% 29.80 in 10.0 mi SE 8.1 mph - N/A   Overcast
7:15 PM 42.8 °F 37.5 °F 19.4 °F 39% 29.80 in 10.0 mi ESE 9.2 mph - N/A   Overcast
7:35 PM 44.6 °F 39.7 °F 19.4 °F 37% 29.79 in 10.0 mi ESE 9.2 mph - N/A   Overcast
7:55 PM 42.8 °F 39.3 °F 19.4 °F 39% 29.79 in 10.0 mi East 5.8 mph - N/A   Overcast
8:15 PM 44.6 °F 41.4 °F 19.4 °F 37% 29.78 in 10.0 mi ESE 5.8 mph - N/A   Overcast
8:35 PM 42.8 °F 38.0 °F 19.4 °F 39% 29.78 in 10.0 mi ESE 8.1 mph - N/A   Overcast
8:55 PM 44.6 °F 38.8 °F 21.2 °F 39% 29.77 in 10.0 mi South 11.5 mph - N/A   Mostly Cloudy
9:15 PM 42.8 °F 37.5 °F 21.2 °F 42% 29.77 in 10.0 mi South 9.2 mph - N/A   Overcast
9:35 PM 44.6 °F 40.7 °F 21.2 °F 39% 29.76 in 10.0 mi South 6.9 mph - N/A   Overcast
9:55 PM 42.8 °F 37.5 °F 24.8 °F 49% 29.75 in 10.0 mi SSW 9.2 mph - N/A   Overcast
10:15 PM 42.8 °F 37.5 °F 23.0 °F 46% 29.74 in 10.0 mi SSW 9.2 mph - N/A   Overcast
10:35 PM 41.0 °F 38.0 °F 21.2 °F 45% 29.74 in 10.0 mi ENE 4.6 mph - N/A   Mostly Cloudy
10:55 PM 39.2 °F 35.0 °F 21.2 °F 49% 29.73 in 10.0 mi East 5.8 mph - N/A   Overcast
11:15 PM 39.2 °F 35.0 °F 21.2 °F 49% 29.73 in 10.0 mi NE 5.8 mph - N/A   Overcast
11:35 PM 37.4 °F - 21.2 °F 52% 29.73 in 10.0 mi Calm Calm - N/A   Overcast
11:55 PM 37.4 °F - 21.2 °F 52% 29.72 in 10.0 mi Calm Calm - N/A   Overcast